Regional Weather Roundup
Issued by NWS

Home | Current Version | Previous Version | Text Only | Print | Product List | Glossary Off
Versions: 1 2 3 4 5 6 7 8 9 10 11 12 13 14 15 16 17 18 19 20 21 22 23 24 25 26 27 28 29 30 31 32 33 34 35 36 37 38 39 40 41 42 43 44 45 46 47 48 49 50

000
ASUS45 KSLC 242210
RWRUT

UTAH REGIONAL WEATHER ROUNDUP
NATIONAL WEATHER SERVICE SALT LAKE CITY UT
300 PM MST WED DEC 24 2014

UTZ001>011-023>025-242300-

NORTHERN UTAH

CITY           SKY/WX    TMP DP  RH WIND       PRES   REMARKS
BRIGHAM CITY   CLOUDY    38  20  48 NW3       29.79F
HILL AFB       CLOUDY    36  18  47 E7        29.76F WCI  31
LOGAN          CLOUDY    35  23  61 NW8       29.76F WCI  29
OGDEN          CLOUDY    39  18  42 S10       29.76F WCI  32
PROVO AIRPORT  NOT AVBL
SALT LAKE CITY CLOUDY    42  20  41 VRB5      29.76F
VERNAL         CLOUDY    31  14  49 CALM      29.90F
WENDOVER       CLOUDY    34  19  55 E5        29.75F WCI  30
HEBER CITY     CLOUDY    34  19  55 CALM      29.79F
WEST JORDAN    MOSUNNY   39  25  56 S21G31    29.76F WCI  29

$$

UTZ012>022-026-027-242300-

SOUTHERN/CENTRAL UTAH

CITY           SKY/WX    TMP DP  RH WIND       PRES   REMARKS
BLANDING       PTSUNNY   35  11  38 S6        30.05F WCI  29
BRYCE CANYON   CLOUDY    32  13  45 E7        29.95F WCI  26
CEDAR CITY     CLOUDY    40  13  33 S25G31    29.90F WCI  29
DELTA          CLOUDY    38  23  56 E8        29.81F WCI  32
MILFORD        CLOUDY    43  17  35 SW25      29.85F
MOAB/CYNLANDS  SUNNY     37  14  38 NE6       29.96F WCI  32
PRICE          CLOUDY    32  10  40 SE5       29.94F WCI  27
ST GEORGE      CLOUDY    45  14  29 S3        29.99F
KANAB          CLOUDY    43  16  33 CALM      30.01F

$$

REGIONAL REPORTS     COLORADO/ARIZONA

CITY           SKY/WX    TMP DP  RH WIND       PRES   REMARKS
CRAIG, CO      PTSUNNY   28  13  53 E7        29.89F WCI  21
GRAND JUNCTION MOSUNNY   33  12  41 S5        29.97F WCI  29
RIFLE          SUNNY     29  11  47 S7        29.98F WCI  22
MONTROSE       MOSUNNY   36  10  34 CALM      29.97F
CORTEZ         SUNNY     38  10  31 CALM      29.99F
PAGE, AZ       CLOUDY    42  13  30 E5        29.97F
GRAND CANYON   PTSUNNY   45  13  27 SW8       30.01F
KINGMAN        PTSUNNY   55  12  18 SW16      29.97F
FLAGSTAFF      PTSUNNY   45  15  30 SW15      30.01F

$$

REGIONAL REPORTS    NEVADA/IDAHO/WYOMING

CITY           SKY/WX    TMP DP  RH WIND       PRES   REMARKS
LAS VEGAS, NV  CLOUDY    52  19  27 CALM      29.93F
ELY            CLOUDY    40  24  53 NW5       29.82F
ELKO           CLOUDY    42  29  59 CALM      29.68F
POCATELLO, ID  LGT SNOW  37  24  59 S22G29    29.68F WCI  26
EVANSTON, WY   CLOUDY    36  23  59 SW17      29.72F WCI  26
ROCK SPRINGS   CLOUDY    34  22  61 S8        29.75F WCI  27
KEMMERER       CLOUDY    32  21  64 CALM      29.73F

$$



USA.gov is the U.S. government's official web portal to all federal, state and local government web resources and services.